Lid_Strength_Index
2 2 2 2 3 3 3 3 3 4 4 4 3 3 4 4 4 4 6 6 8 12 11 11 10 12 12 11 12 11 11 11 12 13 13 13 14 14 15 15 16 15 18 17 15 17 18 13 15 14 11 11 12 12
1 1 2 2 2 3 3 3 3 3 3 3 3 3 3 3 3 4 7 5 5 10 11 11 9 8 8 9 10 11 12 12 10 12 12 12 13 14 14 15 14 14 13 15 13 13 11 13 12 12 12 11 12 12
-1 -0 0 1 1 2 2 3 3 3 3 3 3 3 3 3 3 3 5 5 7 10 11 12 12 10 9 8 6 10 11 11 11 9 11 11 13 13 14 13 14 13 12 12 12 11 11 12 13 14 13 12 12 12
-1 -1 -1 -0 0 1 1 2 2 2 3 3 3 3 3 3 3 3 5 4 5 10 12 12 13 12 11 8 7 7 9 10 10 9 11 11 12 11 13 13 12 11 13 13 13 11 12 11 10 10 11 12 12 13
-1 -1 -1 -1 -1 -1 0 1 1 2 2 2 2 2 2 2 2 3 3 4 4 8 12 12 16 13 13 9 8 7 8 9 10 11 11 12 10 11 12 13 12 11 11 13 13 10 11 10 10 10 11 11 11 12
-1 -1 -1 -1 -1 -1 -1 -0 0 0 1 1 1 1 1 2 2 4 8 6 4 5 10 14 13 15 12 11 9 8 8 9 10 10 11 11 11 10 13 13 11 10 9 10 10 10 10 10 11 10 9 10 11 12
-0 -0 -0 -1 -1 -1 -1 -1 -1 -1 -1 -0 -0 -0 0 0 1 6 7 6 2 3 8 12 13 15 12 11 10 10 9 9 9 10 12 12 12 9 12 15 12 11 10 10 10 11 12 11 9 9 10 10 13 14
-0 -0 -0 -1 -1 -1 -1 -1 -1 -0 -0 -0 -0 -0 -0 -0 0 4 2 1 1 5 6 11 14 15 12 12 12 9 10 9 9 9 11 11 11 10 14 13 11 11 10 10 10 10 9 10 12 12 13 14 14 13
-0 -0 -0 -0 -1 -1 -1 -1 -0 -0 -0 -0 -0 -0 1 3 5 5 1 -0 1 5 9 10 13 16 11 11 10 10 8 11 7 10 10 10 12 14 12 12 11 11 11 11 9 12 15 12 12 13 14 16 14 13
-0 -0 -0 -0 -0 -0 -0 -0 -0 -0 -0 -0 2 4 7 4 1 2 4 6 6 7 8 11 11 13 10 12 11 10 9 10 12 10 10 11 11 9 11 9 8 8 8 13 15 14 15 14 13 13 13 15 14 14
-0 -0 -0 -0 -0 -0 -0 -0 -0 -0 1 5 6 7 4 2 4 5 8 9 9 11 9 11 12 13 10 12 11 9 11 11 14 12 12 12 12 10 8 8 7 17 18 20 19 19 20 18 17 18 17 17 17 18
0 -0 -0 -0 -0 -0 -1 -0 -0 3 6 5 5 4 4 6 8 10 10 11 11 12 12 13 13 10 11 9 10 12 12 13 15 13 13 15 11 9 19 22 24 26 25 24 25 23 23 21 22 22 21 20 19 18
0 -0 -0 -0 -0 -0 -0 -0 -0 1 2 6 10 12 10 11 13 13 14 13 14 21 20 17 13 13 13 12 13 13 15 16 13 15 15 13 15 26 29 28 27 28 28 28 26 26 26 25 24 25 23 22 21 20
1 1 -0 -0 -0 -0 -0 -0 -0 2 7 9 14 18 15 18 17 21 22 23 25 24 23 21 14 13 13 13 14 15 14 14 16 17 16 12 30 31 30 29 30 29 29 29 28 27 27 27 25 24 24 22 22 21
2 2 -0 -0 -0 -0 1 2 5 12 11 15 16 17 19 27 27 27 27 25 25 25 24 19 17 13 13 12 13 15 16 16 16 16 15 29 31 32 30 29 30 29 29 29 28 28 28 27 26 25 23 23 22 22
2 1 3 1 2 3 5 8 11 14 19 19 23 24 29 26 28 29 29 26 26 26 24 22 17 13 13 13 16 15 17 18 16 30 30 30 31 31 30 29 29 28 28 28 28 28 27 27 26 24 23 23 23 22
3 6 2 3 4 6 7 14 16 21 23 25 28 27 28 29 29 31 31 29 26 26 20 21 18 15 16 15 17 27 20 30 32 31 30 30 31 30 30 29 29 28 28 28 27 27 27 26 26 26 25 22 22 21
8 4 3 5 9 11 16 17 21 23 27 26 26 28 28 29 31 32 30 28 27 26 25 22 25 21 19 18 24 33 32 31 31 31 30 30 30 30 29 30 29 29 29 28 28 27 27 27 26 24 24 23 23 22
5 5 5 6 10 17 20 20 21 27 26 26 26 26 28 29 29 28 28 27 26 26 26 25 25 29 33 33 34 33 33 33 33 32 30 30 29 29 29 29 29 29 29 28 27 27 26 26 26 25 24 24 24 22
5 7 8 9 11 20 24 24 22 25 27 26 26 28 28 29 28 29 30 28 28 28 32 33 34 34 34 32 31 31 31 30 31 32 29 27 27 28 29 30 31 31 29 29 29 29 28 28 27 26 26 26 25 24
12 12 12 17 23 25 27 31 28 27 27 28 27 27 29 28 30 31 31 29 31 34 34 33 32 31 30 30 29 30 30 30 31 31 31 31 29 30 30 31 31 32 32 31 32 31 31 30 28 27 26 26 25 24
19 15 21 20 26 28 28 28 27 29 29 30 29 29 31 31 32 32 30 33 34 34 33 33 33 32 32 32 31 31 31 31 30 30 30 30 32 33 33 33 33 33 33 32 31 31 31 29 27 26 26 26 25 25
21 22 28 27 27 29 31 29 31 33 33 34 35 35 36 36 34 29 34 34 34 32 33 33 33 32 33 31 31 31 32 33 31 31 32 31 31 31 32 32 32 34 34 32 31 30 29 28 27 27 27 27 26 27
27 37 37 38 35 35 32 34 31 33 33 36 38 39 39 38 33 34 37 35 34 33 34 34 34 33 32 32 32 33 34 33 32 32 33 33 32 31 30 31 32 32 33 33 31 30 29 29 28 28 28 28 28 28
25 39 38 40 40 35 35 35 34 32 38 42 41 40 38 39 39 38 36 36 35 35 35 35 35 34 35 34 33 34 34 35 35 34 33 34 34 31 29 29 30 31 32 33 33 31 31 30 30 30 29 30 30 29
40 47 42 48 42 40 41 39 39 40 41 43 43 41 42 38 41 38 37 36 36 35 36 36 36 36 34 34 35 35 35 34 34 33 33 33 34 34 33 33 33 32 32 32 32 32 31 31 31 32 32 31 30 30
41 45 45 44 44 43 41 41 42 43 46 43 45 42 38 39 39 36 35 34 36 34 33 34 35 35 35 34 33 33 32 32 33 33 32 32 33 33 34 35 35 33 31 31 31 31 32 32 32 32 32 32 32 31
44 46 42 43 44 44 47 47 47 47 45 42 42 41 39 37 38 36 34 33 34 33 33 33 33 33 34 34 34 34 33 33 33 32 32 32 32 33 33 33 32 29 32 31 29 30 31 32 32 32 33 34 34 33
42 47 42 44 45 42 43 42 43 42 40 41 40 38 39 35 34 35 33 33 32 33 34 34 33 33 33 33 33 34 35 35 33 32 33 33 34 33 34 34 33 33 33 32 29 27 30 31 33 33 34 34 33 33
39 44 43 45 42 41 40 40 39 40 38 38 37 36 37 35 32 31 32 33 33 34 34 34 34 34 34 34 33 34 35 35 36 36 36 36 36 35 35 35 35 35 35 34 33 32 30 32 31 32 32 33 32 33
40 41 39 38 38 37 36 36 38 38 38 37 38 37 37 35 32 31 32 32 32 32 33 34 33 34 34 35 35 35 34 35 36 36 35 35 35 34 34 34 35 37 38 36 36 36 35 35 35 35 35 36 36 35
34 36 35 36 37 36 36 37 36 35 34 35 35 34 35 35 35 33 32 32 32 34 34 34 34 34 34 34 34 35 34 35 35 36 35 34 33 32 32 33 36 38 37 36 36 37 37 38 38 38 38 39 39 39
33 33 34 34 36 36 36 36 35 36 35 35 34 33 33 33 35 32 31 33 33 34 34 34 33 33 33 34 34 34 34 35 34 32 31 28 29 28 33 35 37 38 37 37 37 37 37 38 37 38 38 39 39 40